Location: Barrialito
(10.3588°N, 66.9747°W)
Time: 16:31:08
(UTC+00:00)

Daily predictions for brighter satellites

Satellite Brightness Start Highest point End
(mag) Time Altitude Azimuth Time Altitude Azimuth Time Altitude Azimuth
CZ-3B Rocket 3.5 22:15:04 10° WNW 22:19:43 57° NNE 22:44:42 10° E
CORIOLIS 4.2 22:24:18 10° SSE 22:29:40 90° ENE 22:35:04 10° NNW
H-2A R/B 2.3 22:25:24 10° SSE 22:30:29 50° ENE 22:35:25 10° N
Cosmos 1666 Rocket 3.7 22:28:20 10° N 22:32:41 82° W 22:37:01 10° S
USA 32 4.1 22:29:36 10° S 22:34:43 59° E 22:39:50 10° NNE
ARIANE 5 DEB (SYLDA) 3.9 22:27:27 10° WSW 22:34:49 48° S 22:38:26 10° ESE
VEP-3 2.8 22:29:02 10° WSW 22:35:03 72° SSE 22:42:08 10° ENE
Aurora 2 Rocket 3.4 22:31:21 10° NW 22:35:32 41° NNE 22:41:22 10° E
Cosmos 372 Rocket 4.1 22:30:18 10° NNW 22:35:33 86° WSW 22:40:47 10° S
Cosmos 1470 Rocket 4.0 22:32:15 10° NNE 22:36:27 40° E 22:40:39 10° SSE
deb Chang Zheng 4 4.4 22:33:27 10° SE 22:37:07 28° ENE 22:40:47 10° NNE
SMAP 4.2 22:35:06 10° S 22:39:35 49° W 22:44:04 10° NNW
Cosmos 1697 Rocket 4.4 22:35:52 10° NW 22:41:00 38° WSW 22:46:10 10° S
Cosmos 2322 Rocket4.322:50:05ESE22:50:05ESE22:41:25NE
ARGOS 3.6 22:39:58 10° SE 22:44:56 37° ENE 22:49:52 10° N
Cosmos 2266 Rocket 4.3 22:39:37 10° NNE 22:45:44 47° E 22:51:49 10° SSE
Cosmos 1980 Rocket 2.3 22:41:52 10° NNW 22:47:28 82° WSW 22:53:03 10° SSE
SL-27 R/B 2.3 22:45:49 10° S 22:49:14 84° E 22:52:42 10° NNE
CZ-4C R/B 3.5 22:41:52 10° N 22:49:46 45° ENE 22:57:57 10° SE
Gbstr 26 Del rocket 4.3 22:42:55 10° SW 22:49:49 62° NW 22:55:24 10° NNE
Hubble Space Telescope 2.1 22:48:13 10° SSW 22:51:48 28° SSE 22:54:34 14° E
BREEZE-M DEB (TANK) 3.7 22:51:23 10° N 22:53:34 22° NE 22:54:04 21° ENE
Ariane H10-3 3.6 22:52:31 10° SW 22:54:45 17° S 22:57:40 10° SE
H-2A R/B 2.6 22:55:54 11° NNE 22:59:53 40° E 23:04:00 10° S
Meteor 1-11 Rocket 4.0 22:54:46 10° N 23:00:20 50° E 23:06:02 10° SSE
CZ-4 R/B 4.4 23:01:01 10° SSE 23:05:03 60° ENE 23:09:06 10° N
SL-16 R/B 3.0 23:00:37 10° NNE 23:05:18 27° ENE 23:09:59 10° SE
Cosmos 2228 Rocket 3.1 23:03:31 10° S 23:07:55 79° W 23:12:17 10° N
Cosmos 1356 Rocket 3.5 23:03:46 10° N 23:07:58 58° E 23:12:11 10° SSE
BREEZE-M DEB (TANK) 3.0 23:06:27 10° WSW 23:08:31 42° NW 23:10:29 18° NNE
Meteor 1-19 Rocket 4.3 23:08:17 10° S 23:14:17 71° E 23:20:13 10° NNE
ARIANE 3 DEB 3.7 23:12:43 10° SW 23:14:17 17° S 23:14:44 16° SSE
Okean 1 3.2 23:13:16 10° S 23:17:17 82° E 23:20:26 16° N
GPS 2-15 Rocket1 3.3 23:16:11 10° WNW 23:20:44 51° NNE 23:22:06 38° ENE
Cosmos 2278 4.5 23:16:38 10° NNW 23:22:08 54° WSW 23:27:37 10° S
SWIFT 2.4 23:18:46 10° WNW 23:22:58 73° SSW 23:24:54 31° ESE
Cosmos 44 Rocket 3.3 23:18:30 10° N 23:23:00 46° ENE 23:27:26 10° SE
YAOGAN 1 2.6 23:22:50 10° SSE 23:27:01 50° ENE 23:28:14 37° NNE
ISS -1.1 23:25:39 10° NNW 23:25:41 10° NNW 23:25:41 10° NNW
CZ-4B R/B 3.9 23:24:05 10° S 23:29:27 55° WSW 23:34:43 10° NNW
Cosmos 1707 Rocket 3.4 23:27:39 10° S 23:31:58 85° E 23:33:54 32° N
OAO 3 Rocket 3.0 23:27:22 10° SW 23:32:01 85° SE 23:33:07 52° ENE
ASTEX 1 3.6 23:29:26 10° SSE 23:33:54 44° E 23:33:54 44° E
COSMOS 2487 3.0 23:35:01 10° SSW 23:38:14 49° WNW 23:38:39 45° NW
Cosmos 1862 Rocket 3.9 23:41:16 10° S 23:44:45 51° SE 23:44:45 51° SE
Cosmos 1538 Rocket 4.5 23:41:04 10° SSW 23:46:20 60° WNW 23:49:29 24° N
SL-08 RB Rocket 4.5 23:41:54 10° S 23:46:26 53° W 23:50:56 10° NNW
Nadezhda 2 Rocket 4.4 23:47:16 37° NNE 23:49:44 61° E 23:55:53 10° SSE
Cosmos 1553 Rocket 4.1 23:43:28 10° S 23:49:46 77° W 23:54:37 17° N
Cosmos 2297 Rocket 3.6 23:45:41 10° SSE 23:48:24 23° SE 23:48:24 23° SE
Cosmos 1536 4.2 23:48:33 10° NNW 23:52:16 38° W 23:55:58 10° SSW
BREEZE M DEB (TANK) 3.4 23:46:24 10° NW 23:51:09 41° NNW 23:51:09 41° NNW
S3M 3.8 23:46:56 10° S 23:53:00 66° E 23:53:52 59° NE
CZ-4B R/B 3.9 23:59:10 16° SSW 23:59:10 16° SSW 23:59:55 10° SSW
